Regional Weather Roundup
Issued by NWS

Home | Current Version | Previous Version | Text Only | Print | Product List | Glossary Off
Versions: 1 2 3 4 5 6 7 8 9 10 11 12 13 14 15 16 17 18 19 20 21 22 23 24 25 26 27 28 29 30 31 32 33 34 35 36 37 38 39 40 41 42 43 44 45 46 47 48 49 50

000
ASUS43 KLOT 031200
RWRIL

ILLINOIS REGIONAL WEATHER ROUNDUP
NATIONAL WEATHER SERVICE CHICAGO/ROMEOVILLE IL
600 AM CST TUE MAR 03 2015

NOTE: "FAIR" INDICATES FEW OR NO CLOUDS BELOW 12,000 FEET WITH NO
SIGNIFICANT WEATHER AND/OR OBSTRUCTIONS TO VISIBILITY.

* THESE STATIONS ARE NOT UNDER NWS QUALITY CONTROL. THEY ALSO MAY NOT
  REPORT WEATHER SUCH AS PRECIPITATION OR FOG.

ILZ001-002-007-009-015-016-024-031300-
NORTHWEST ILLINOIS

CITY           SKY/WX    TMP DP  RH WIND       PRES   REMARKS
MOLINE         FRZ RAIN  28  25  88 SE14G24   29.82F FOG     WCI  17
6HR MIN TEMP:  26; 6HR MAX TEMP:  29; 6HR PCP:  0.20;

STERLING*      CLOUDY    28  27  93 SE14G21   29.87F WCI  17
$$

ILZ003-004-008-010-011-017-018-031300-
NORTH CENTRAL ILLINOIS

CITY           SKY/WX    TMP DP  RH WIND       PRES   REMARKS
ROCKFORD       LGTSLEET  25  21  85 SE15      29.90F FOG     WCI  13
6HR MIN TEMP:  24; 6HR MAX TEMP:  25; 6HR PCP:  0.20;

$$

ILZ005-006-012>014-019>023-031300-
NORTHEAST ILLINOIS

CITY           SKY/WX    TMP DP  RH WIND       PRES   REMARKS
CHICAGO-OHARE  LGT SNOW  24  22  91 SE13      29.96F FOG     WCI  12
6HR MIN TEMP:  24; 6HR MAX TEMP:  26; 6HR PCP:  0.10;

CHICAGO-MIDWAY LGT SNOW  27  23  85 SE13      29.98F FOG     WCI  16
6HR MIN TEMP:  27; 6HR MAX TEMP:  29; 6HR PCP:  0.04;

AURORA         CLOUDY    26  22  84 SE15      29.93F FOG     WCI  14
6HR MIN TEMP:  25; 6HR MAX TEMP:  26; 6HR PCP: TRACE;

WAUKEGAN       SNOW      25  24  96 SE10G20   29.95F VSB 1/2 WCI  15
6HR MIN TEMP:  25; 6HR MAX TEMP:  27; 6HR PCP: TRACE;

DUPAGE AIRPORT MIX PCPN  25  22  88 SE14      29.94F FOG     WCI  13
6HR MIN TEMP:  24; 6HR MAX TEMP:  26; 6HR PCP:  0.06;

WHEELING       LGT SNOW  24  22  91 SE12      29.98F VSB 1   WCI  13
6HR MIN TEMP:  24; 6HR MAX TEMP:  27; 6HR PCP:  0.01;

NORTHERLY ISL    N/A     26  23  88 SE13        N/A  WCI  15
$$

LMZ740>746-031300-
SOUTHERN LAKE MICHIGAN

STATION/POSITION SKY/WX   TEMP    WIND        PRES    VSBY  WAVE
                          AIR SEA DIR/SP/G                  HT/PER
                          (F)     (DEG/KT/KT) (MB)    (MI)  (FT/S)
WAUKEGAN HARBOR            26     170/ 13/ 64   N/A
HARRISON CRIB              26     170/ 21/ 25   N/A
BURNHAM HARBOR             26     150/ 14       N/A
CALUMET HARBOR                    150/  8/ 10 1016.3F
MICHIGAN CITY              26     140/  9/ 11   N/A
$$

ILZ025>027-034>036-040-047-049-050-058-095>099-031300-
WEST-CENTRAL ILLINOIS

CITY           SKY/WX    TMP DP  RH WIND       PRES   REMARKS
QUINCY         CLOUDY    29  26  89 S14       29.83F FOG     WCI  18
$$

ILZ028>032-037-038-041>044-048-051>054-059>061-031300-
CENTRAL ILLINOIS

CITY           SKY/WX    TMP DP  RH WIND       PRES   REMARKS
BLOOMINGTON    LGT SNOW  28  27  93 S15       29.95F FOG     WCI  17
DECATUR        FRZ RAIN  30  24  78 SE14      29.97F WCI  19
PEORIA         FRZ RAIN  30  25  81 S14       29.91F WCI  19
6HR MIN TEMP:  28; 6HR MAX TEMP:  31; 6HR PCP:  0.06;

SPRINGFIELD    CLOUDY    30  26  85 S12       29.94F FOG     WCI  20
6HR MIN TEMP:  28; 6HR MAX TEMP:  30; 6HR PCP:  0.04;

TAYLORVILLE    NOT AVBL
$$

ILZ033-039-045-046-055>057-062-063-031300-
EAST-CENTRAL ILLINOIS

CITY           SKY/WX    TMP DP  RH WIND       PRES   REMARKS
CHAMPAIGN      CLOUDY    28  23  81 SE15      29.99F WCI  16
MATTOON        CLOUDY    30  21  69 SE10      29.99F WCI  21
$$

ILZ079-100>102-031300-
SOUTHWEST ILLINOIS

CITY           SKY/WX    TMP DP  RH WIND       PRES   REMARKS
BELLEVILLE     CLOUDY    33  29  85 SE7       29.94F WCI  27
CAHOKIA*       CLOUDY    34  27  75 S7        29.94F WCI  28
$$

ILZ064>066-069>071-074>076-080>082-084>086-088>090-092>094-031300-
SOUTH-CENTRAL ILLINOIS

CITY           SKY/WX    TMP DP  RH WIND       PRES   REMARKS
CARBONDALE     CLOUDY    37  31  78 S13       30.00F WCI  29
6HR MIN TEMP:  32; 6HR MAX TEMP:  37; 6HR PCP: TRACE;

MT. VERNON     CLOUDY    36  25  64 S8        30.01F WCI  29
$$

ILZ067-068-072-073-078-083-087-091-031300-
SOUTHEAST ILLINOIS

CITY           SKY/WX    TMP DP  RH WIND       PRES   REMARKS
LAWRENCEVILLE  CLOUDY    33  25  72 SE10      30.04F WCI  25
$$

ABBREVIATIONS USED IN REMARKS
   TC - TEMPERATURE IN CELSIUS
  WCI - WIND CHILL INDEX
   HX - HEAT INDEX
  VSB - VISIBILITY
$$




USA.gov is the U.S. government's official web portal to all federal, state and local government web resources and services.